Change the Weather History Date:

Saturday, January 14, 2012

  Actual Average (KHSV) Record (KHSV)
Temperature  
Mean Temperature 36 °F 41 °F  
Max Temperature 53 °F 51 °F 71 °F (1911)
Min Temperature 19 °F 32 °F 8 °F (2011)
Degree Days  
Heating Degree Days 29 24  
Month to date heating degree days 336  
Since 1 July heating degree days 1517  
Cooling Degree Days 0 0  
Month to date cooling degree days 0  
Year to date cooling degree days 0  
Moisture  
Dew Point 21 °F    
Average Humidity 59    
Maximum Humidity 93    
Minimum Humidity 30    
Precipitation  
Precipitation 0.00 in 0.16 in 1.48 in (1909)
Month to date precipitation 2.23  
Year to date precipitation 2.23  
Snow  
Snow 0.00 in - - ()
Month to date snowfall  
Since 1 July snowfall  
Snow Depth -    
Sea Level Pressure  
Sea Level Pressure 30.18 in    
Wind  
Wind Speed 4 mph (WSW)    
Max Wind Speed 17 mph    
Max Gust Speed 29 mph    
Visibility 10 miles    
Events      
T = Trace of Precipitation, MM = Missing Value Source: NWS Daily Summary

Daily Weather History Graph

Daily Weather History Graph

Search for Another Location

Airport or City:

Trip Planner

Search our weather history database for the weather conditions in past years. The results will help you decide how hot, cold, wet, or windy it might be!

Date:

Astronomy

Jan. 14, 2012 Rise Set
Actual Time 6:51 AM CST 4:55 PM CST
Civil Twilight 6:23 AM CST 5:22 PM CST
Nautical Twilight 5:52 AM CST 5:53 PM CST
Astronomical Twilight 5:22 AM CST 6:23 PM CST
Moon 10:56 PM CST (1/14) 9:52 AM CST (1/14)
Length of Visible Light 10h 58m
Length of Day
10h 03m
Waning Gibbous, 68% of the Moon is Illuminated
Jan 14
Waning Gibbous
Jan 16
Last Quarter
Jan 23
New
Jan 30
First Quarter
Feb 7
Full

Hourly Weather History & Observations

Time (CST) Temp. Windchill Dew Point Humidity Pressure Visibility Wind Dir Wind Speed Gust Speed Precip Events Conditions
12:15 AM 23.0 °F - 21.2 °F 93% 30.23 in 10.0 mi Calm Calm - N/A   Clear
12:35 AM 23.0 °F - 21.2 °F 93% 30.22 in 10.0 mi Calm Calm - N/A   Clear
12:55 AM 23.0 °F - 21.2 °F 93% 30.22 in 10.0 mi Calm Calm - N/A   Clear
1:15 AM 23.0 °F - 21.2 °F 93% 30.23 in 10.0 mi Calm Calm - N/A   Clear
1:35 AM 23.0 °F - 19.4 °F 86% 30.23 in 10.0 mi Calm Calm - N/A   Clear
1:55 AM 23.0 °F - 19.4 °F 86% 30.23 in 10.0 mi Calm Calm - N/A   Clear
2:15 AM 23.0 °F - 19.4 °F 86% 30.23 in 10.0 mi Calm Calm - N/A   Clear
2:35 AM 23.0 °F - 19.4 °F 86% 30.24 in 10.0 mi Calm Calm - N/A   Clear
2:55 AM 23.0 °F 18.4 °F 19.4 °F 86% 30.24 in 10.0 mi SW 3.5 mph - N/A   Clear
3:15 AM 21.2 °F - 19.4 °F 93% 30.24 in 10.0 mi Calm Calm - N/A   Clear
3:35 AM 23.0 °F - 19.4 °F 86% 30.25 in 10.0 mi Calm Calm - N/A   Clear
3:55 AM 23.0 °F - 19.4 °F 86% 30.25 in 10.0 mi Calm Calm - N/A   Clear
4:15 AM 21.2 °F - 19.4 °F 93% 30.25 in 10.0 mi Calm Calm - N/A   Clear
4:35 AM 21.2 °F - 19.4 °F 93% 30.25 in 10.0 mi Calm Calm - N/A   Clear
4:55 AM 21.2 °F - 19.4 °F 93% 30.25 in 10.0 mi Calm Calm - N/A   Clear
5:15 AM 21.2 °F 16.4 °F 19.4 °F 93% 30.26 in 10.0 mi SW 3.5 mph - N/A   Clear
5:35 AM 21.2 °F - 17.6 °F 86% 30.26 in 10.0 mi Calm Calm - N/A   Clear
6:15 AM 21.2 °F - 17.6 °F 86% 30.27 in 10.0 mi Calm Calm - N/A   Clear
6:35 AM 19.4 °F - 17.6 °F 93% 30.27 in 10.0 mi Calm Calm - N/A   Clear
6:55 AM 19.4 °F - 17.6 °F 93% 30.26 in 10.0 mi Calm Calm - N/A   Clear
7:15 AM 19.4 °F - 17.6 °F 93% 30.27 in 10.0 mi Calm Calm - N/A   Clear
7:35 AM 21.2 °F - 19.4 °F 93% 30.27 in 10.0 mi Calm Calm - N/A   Clear
7:55 AM 24.8 °F - 19.4 °F 80% 30.27 in 10.0 mi Calm Calm - N/A   Clear
8:15 AM 26.6 °F - 21.2 °F 80% 30.28 in 10.0 mi Calm Calm - N/A   Clear
8:35 AM 28.4 °F - 23.0 °F 80% 30.28 in 10.0 mi Calm Calm - N/A   Clear
9:15 AM 33.8 °F 27.7 °F 23.0 °F 65% 30.28 in 10.0 mi WSW 6.9 mph - N/A   Clear
9:55 AM 37.4 °F 32.1 °F 21.2 °F 52% 30.27 in 10.0 mi SW 6.9 mph - N/A   Clear
10:15 AM 37.4 °F 31.4 °F 19.4 °F 48% 30.26 in 10.0 mi SW 8.1 mph - N/A   Clear
10:55 AM 41.0 °F 34.7 °F 17.6 °F 39% 30.23 in 10.0 mi SW 10.4 mph 16.1 mph N/A   Clear
11:15 AM 41.0 °F 35.2 °F 17.6 °F 39% 30.21 in 10.0 mi SW 9.2 mph 19.6 mph N/A   Clear
11:35 AM 44.6 °F 38.4 °F 17.6 °F 34% 30.20 in 10.0 mi SW 12.7 mph 18.4 mph N/A   Clear
11:55 AM 44.6 °F 37.8 °F 17.6 °F 34% 30.18 in 10.0 mi SSW 15.0 mph 24.2 mph N/A   Clear
12:15 PM 46.4 °F 40.4 °F 17.6 °F 32% 30.15 in 10.0 mi SW 13.8 mph 24.2 mph N/A   Clear
12:35 PM 46.4 °F 40.4 °F 19.4 °F 34% 30.13 in 10.0 mi SW 13.8 mph 21.9 mph N/A   Clear
12:55 PM 48.2 °F - 19.4 °F 32% 30.12 in 10.0 mi SW 13.8 mph 23.0 mph N/A   Clear
1:15 PM 50.0 °F - 21.2 °F 32% 30.10 in 10.0 mi SW 13.8 mph 23.0 mph N/A   Clear
1:35 PM 50.0 °F - 23.0 °F 35% 30.09 in 10.0 mi SW 16.1 mph 24.2 mph N/A   Clear
1:55 PM 51.8 °F - 23.0 °F 33% 30.07 in 10.0 mi SW 17.3 mph 25.3 mph N/A   Clear
2:15 PM 51.8 °F - 23.0 °F 33% 30.07 in 10.0 mi SW 9.2 mph 24.2 mph N/A   Clear
2:35 PM 53.6 °F - 23.0 °F 30% 30.06 in 10.0 mi SW 15.0 mph 25.3 mph N/A   Clear
2:55 PM 53.6 °F - 24.8 °F 33% 30.05 in 10.0 mi SW 13.8 mph 24.2 mph N/A   Partly Cloudy
3:15 PM 53.6 °F - 24.8 °F 33% 30.04 in 10.0 mi SW 10.4 mph 18.4 mph N/A   Clear
3:35 PM 53.6 °F - 24.8 °F 33% 30.04 in 10.0 mi SW 15.0 mph 21.9 mph N/A   Clear
3:55 PM 53.6 °F - 23.0 °F 30% 30.05 in 10.0 mi SW 12.7 mph 28.8 mph N/A   Clear
4:15 PM 53.6 °F - 24.8 °F 33% 30.06 in 10.0 mi SW 8.1 mph 17.3 mph N/A   Scattered Clouds
4:35 PM 51.8 °F - 24.8 °F 35% 30.06 in 10.0 mi SW 10.4 mph 19.6 mph N/A   Scattered Clouds
4:55 PM 50.0 °F - 24.8 °F 37% 30.06 in 10.0 mi SW 9.2 mph - N/A   Clear
5:15 PM 50.0 °F - 24.8 °F 37% 30.07 in 10.0 mi SW 8.1 mph - N/A   Partly Cloudy
5:35 PM 50.0 °F - 26.6 °F 40% 30.07 in 10.0 mi SW 6.9 mph - N/A   Scattered Clouds
5:55 PM 50.0 °F - 26.6 °F 40% 30.09 in 10.0 mi SW 6.9 mph - N/A   Overcast
6:15 PM 50.0 °F - 24.8 °F 37% 30.11 in 10.0 mi West 12.7 mph 16.1 mph N/A   Scattered Clouds
6:35 PM 50.0 °F - 24.8 °F 37% 30.12 in 10.0 mi West 8.1 mph - N/A   Clear
6:55 PM 50.0 °F - 23.0 °F 35% 30.13 in 10.0 mi West 10.4 mph 21.9 mph N/A   Clear
7:15 PM 50.0 °F - 23.0 °F 35% 30.14 in 10.0 mi WNW 10.4 mph 18.4 mph N/A   Clear
7:35 PM 50.0 °F - 23.0 °F 35% 30.16 in 10.0 mi WNW 10.4 mph 20.7 mph N/A   Clear
7:55 PM 50.0 °F - 23.0 °F 35% 30.17 in 10.0 mi WNW 9.2 mph 18.4 mph N/A   Clear
8:15 PM 48.2 °F - 23.0 °F 37% 30.18 in 10.0 mi WNW 8.1 mph 17.3 mph N/A   Clear
8:35 PM 48.2 °F - 23.0 °F 37% 30.18 in 10.0 mi WNW 6.9 mph 16.1 mph N/A   Clear
8:55 PM 48.2 °F - 23.0 °F 37% 30.18 in 10.0 mi West 6.9 mph - N/A   Partly Cloudy
9:15 PM 48.2 °F - 23.0 °F 37% 30.19 in 10.0 mi West 9.2 mph - N/A   Partly Cloudy
9:35 PM 46.4 °F 41.5 °F 23.0 °F 40% 30.20 in 10.0 mi West 10.4 mph - N/A   Clear
9:55 PM 46.4 °F 43.5 °F 24.8 °F 43% 30.20 in 10.0 mi WNW 5.8 mph - N/A   Clear
10:15 PM 46.4 °F 42.4 °F 24.8 °F 43% 30.21 in 10.0 mi West 8.1 mph - N/A   Clear
10:35 PM 46.4 °F 42.9 °F 24.8 °F 43% 30.22 in 10.0 mi West 6.9 mph - N/A   Partly Cloudy
10:55 PM 44.6 °F 42.2 °F 24.8 °F 46% 30.23 in 10.0 mi WNW 4.6 mph - N/A   Clear
11:15 PM 44.6 °F 39.7 °F 26.6 °F 49% 30.25 in 10.0 mi North 9.2 mph 17.3 mph N/A   Clear
11:55 PM 41.0 °F 37.1 °F 24.8 °F 53% 30.26 in 10.0 mi NNW 5.8 mph - N/A   Clear